,,,PA_Meas_PMT16A,,PR_Meas_QMR101_102,,RH_Meas_QMH101,,SR_Meas_QMS101,,TA_Meas_QMH101,,GenWind,,GenWind,
date,time,status,PA,status,PR,status,RH,status,SR,status,TA,status,DirAvg,status,SpdAvg,
2010-04-11, 00:00:04,VALID,1003.69,VALID,0,VALID,93.82,VALID,0,VALID,25.4363,VALID,75,VALID,0.587891,
2010-04-11, 00:01:04,VALID,1003.67,VALID,0,VALID,93.8123,VALID,0,VALID,25.4363,VALID,90,VALID,0.5625,
2010-04-11, 00:02:04,VALID,1003.66,VALID,0,VALID,93.7818,VALID,0,VALID,25.4363,VALID,90,VALID,0.350391,
2010-04-11, 00:03:04,VALID,1003.65,VALID,0,VALID,93.8123,VALID,0,VALID,25.4363,VALID,90,VALID,0.330469,
2010-04-11, 00:04:04,VALID,1003.64,VALID,0,VALID,93.8352,VALID,0,VALID,25.4363,VALID,90,VALID,0,
2010-04-11, 00:05:04,VALID,1003.66,VALID,0,VALID,93.82,VALID,0,VALID,25.4363,VALID,90,VALID,0,
2010-04-11, 00:06:04,VALID,1003.63,VALID,0,VALID,93.8047,VALID,0,VALID,25.4169,VALID,90,VALID,0,
2010-04-11, 00:07:04,VALID,1003.66,VALID,0,VALID,93.7971,VALID,0,VALID,25.3974,VALID,90,VALID,0,
2010-04-11, 00:08:04,VALID,1003.67,VALID,0,VALID,93.8123,VALID,0,VALID,25.376,VALID,90,VALID,0,
2010-04-11, 00:09:04,VALID,1003.67,VALID,0,VALID,93.8429,VALID,0,VALID,25.3584,VALID,90,VALID,0,
2010-04-11, 00:10:04,VALID,1003.67,VALID,0,VALID,93.8505,VALID,0,VALID,25.3195,VALID,90,VALID,0,
2010-04-11, 00:11:04,VALID,1003.68,VALID,0,VALID,93.8886,VALID,0,VALID,25.3195,VALID,90,VALID,0,
2010-04-11, 00:12:04,VALID,1003.68,VALID,0,VALID,93.9191,VALID,0,VALID,25.3,VALID,90,VALID,0,
2010-04-11, 00:13:04,VALID,1003.66,VALID,0,VALID,94.0031,VALID,0,VALID,25.3,VALID,90,VALID,0,
2010-04-11, 00:14:04,VALID,1003.65,VALID,0,VALID,94.1022,VALID,0,VALID,25.3,VALID,90,VALID,0,
2010-04-11, 00:15:04,VALID,1003.64,VALID,0,VALID,94.1785,VALID,0,VALID,25.3,VALID,90,VALID,0,
2010-04-11, 00:16:04,VALID,1003.61,VALID,0,VALID,94.2243,VALID,0,VALID,25.2611,VALID,90,VALID,0,
2010-04-11, 00:17:04,VALID,1003.6,VALID,0,VALID,94.2624,VALID,0,VALID,25.2611,VALID,90,VALID,0,
2010-04-11, 00:18:04,VALID,1003.57,VALID,0,VALID,94.3311,VALID,0,VALID,25.2416,VALID,90,VALID,0,
2010-04-11, 00:19:04,VALID,1003.55,VALID,0,VALID,94.3616,VALID,0,VALID,25.2221,VALID,90,VALID,0,
2010-04-11, 00:20:04,VALID,1003.55,VALID,0,VALID,94.3998,VALID,0,VALID,25.2007,VALID,90,VALID,0,
2010-04-11, 00:21:04,VALID,1003.53,VALID,0,VALID,94.4455,VALID,0,VALID,25.2027,VALID,90,VALID,0,
2010-04-11, 00:22:04,VALID,1003.55,VALID,0,VALID,94.5066,VALID,0,VALID,25.1618,VALID,90,VALID,0,
2010-04-11, 00:23:04,VALID,1003.54,VALID,0,VALID,94.5676,VALID,0,VALID,25.2027,VALID,90,VALID,0,
2010-04-11, 00:24:04,VALID,1003.54,VALID,0,VALID,94.6134,VALID,0,VALID,25.2027,VALID,90,VALID,0,
2010-04-11, 00:25:04,VALID,1003.56,VALID,0,VALID,94.6439,VALID,0,VALID,25.2027,VALID,90,VALID,0,
2010-04-11, 00:26:04,VALID,1003.55,VALID,0,VALID,94.6591,VALID,0,VALID,25.1637,VALID,90,VALID,0,
2010-04-11, 00:27:04,VALID,1003.53,VALID,0,VALID,94.6591,VALID,0,VALID,25.1618,VALID,90,VALID,0,
2010-04-11, 00:28:04,VALID,1003.52,VALID,0,VALID,94.6897,VALID,0,VALID,25.1637,VALID,90,VALID,0,
2010-04-11, 00:29:04,VALID,1003.52,VALID,0,VALID,94.6973,VALID,0,VALID,25.1442,VALID,90,VALID,0,
2010-04-11, 00:30:04,VALID,1003.52,VALID,0,VALID,94.7354,VALID,0,VALID,25.1637,VALID,90,VALID,0,
2010-04-11, 00:31:04,VALID,1003.53,VALID,0,VALID,94.766,VALID,0,VALID,25.1637,VALID,90,VALID,0,
2010-04-11, 00:32:04,VALID,1003.53,VALID,0,VALID,94.8041,VALID,0,VALID,25.1442,VALID,90,VALID,0,
2010-04-11, 00:33:04,VALID,1003.52,VALID,0,VALID,94.8575,VALID,0,VALID,25.1637,VALID,90,VALID,0,
2010-04-11, 00:34:04,VALID,1003.5,VALID,0,VALID,94.9109,VALID,0,VALID,25.1832,VALID,86,VALID,0.426172,
2010-04-11, 00:35:04,VALID,1003.49,VALID,0,VALID,94.9719,VALID,0,VALID,25.1832,VALID,85,VALID,0.179297,
2010-04-11, 00:36:04,VALID,1003.5,VALID,0,VALID,94.9567,VALID,0,VALID,25.2027,VALID,85,VALID,0.251172,
2010-04-11, 00:37:04,VALID,1003.47,VALID,0,VALID,94.9719,VALID,0,VALID,25.2027,VALID,85,VALID,0.0398437,
2010-04-11, 00:38:04,VALID,1003.45,VALID,0,VALID,94.9796,VALID,0,VALID,25.2221,VALID,85,VALID,0.316406,
2010-04-11, 00:39:04,VALID,1003.45,VALID,0,VALID,94.9643,VALID,0,VALID,25.2221,VALID,85,VALID,0.2125,
2010-04-11, 00:40:04,VALID,1003.39,VALID,0,VALID,94.949,VALID,0,VALID,25.2221,VALID,85,VALID,0.175,
2010-04-11, 00:41:04,VALID,1003.4,VALID,0,VALID,94.9567,VALID,0,VALID,25.263,VALID,90,VALID,0.215625,
2010-04-11, 00:42:04,VALID,1003.34,VALID,0,VALID,94.9109,VALID,0,VALID,25.2416,VALID,90,VALID,0.0851562,
2010-04-11, 00:43:04,VALID,1003.36,VALID,0,VALID,94.9185,VALID,0,VALID,25.2611,VALID,90,VALID,0.533594,
2010-04-11, 00:44:04,VALID,1003.33,VALID,0,VALID,94.8804,VALID,0,VALID,25.2806,VALID,90,VALID,0.134766,
2010-04-11, 00:45:04,VALID,1003.31,VALID,0,VALID,94.8651,VALID,0,VALID,25.2806,VALID,90,VALID,0.0480469,
2010-04-11, 00:46:04,VALID,1003.29,VALID,0,VALID,94.8041,VALID,0,VALID,25.3,VALID,90,VALID,0.227734,
2010-04-11, 00:47:04,VALID,1003.32,VALID,0,VALID,94.8117,VALID,0,VALID,25.339,VALID,90,VALID,0.126953,
2010-04-11, 00:48:04,VALID,1003.28,VALID,0,VALID,94.7354,VALID,0,VALID,25.3779,VALID,90,VALID,0.342578,
2010-04-11, 00:49:04,VALID,1003.25,VALID,0,VALID,94.621,VALID,0,VALID,25.3974,VALID,90,VALID,0.370313,
2010-04-11, 00:50:04,VALID,1003.26,VALID,0,VALID,94.5066,VALID,0,VALID,25.4169,VALID,42,VALID,0.524219,
2010-04-11, 00:51:04,VALID,1003.24,VALID,0,VALID,94.3769,VALID,0,VALID,25.4363,VALID,37,VALID,0.651563,
2010-04-11, 00:52:04,VALID,1003.23,VALID,0,VALID,94.2319,VALID,0,VALID,25.4539,VALID,24,VALID,0.714453,
2010-04-11, 00:53:04,VALID,1003.22,VALID,0,VALID,94.0717,VALID,0,VALID,25.5142,VALID,25,VALID,0.496094,
2010-04-11, 00:54:04,VALID,1003.2,VALID,0,VALID,93.9344,VALID,0,VALID,25.4928,VALID,20,VALID,0.669141,
2010-04-11, 00:55:04,VALID,1003.2,VALID,0,VALID,93.8429,VALID,0,VALID,25.5532,VALID,46,VALID,0.142188,
2010-04-11, 00:56:04,VALID,1003.16,VALID,0,VALID,93.675,VALID,0,VALID,25.5532,VALID,46,VALID,0.096875,
2010-04-11, 00:57:04,VALID,1003.17,VALID,0,VALID,93.5377,VALID,0,VALID,25.5318,VALID,46,VALID,0,
2010-04-11, 00:58:04,VALID,1003.14,VALID,0,VALID,93.4614,VALID,0,VALID,25.5142,VALID,46,VALID,0.311328,
2010-04-11, 00:59:04,VALID,1003.16,VALID,0,VALID,93.408,VALID,0,VALID,25.5142,VALID,47,VALID,0.280469,
2010-04-11, 01:00:04,VALID,1003.2,VALID,0,VALID,93.4614,VALID,0,VALID,25.4753,VALID,47,VALID,0.233594,
2010-04-11, 01:01:04,VALID,1003.21,VALID,0,VALID,93.4919,VALID,0,VALID,25.4344,VALID,52,VALID,0.542969,
2010-04-11, 01:02:04,VALID,1003.22,VALID,0,VALID,93.5224,VALID,0,VALID,25.4558,VALID,53,VALID,0.319531,
2010-04-11, 01:03:04,VALID,1003.21,VALID,0,VALID,93.5987,VALID,0,VALID,25.4363,VALID,53,VALID,0.294531,
2010-04-11, 01:04:04,VALID,1003.22,VALID,0,VALID,93.6369,VALID,0,VALID,25.3974,VALID,53,VALID,0.198437,
2010-04-11, 01:05:04,VALID,1003.24,VALID,0,VALID,93.7284,VALID,0,VALID,25.3974,VALID,53,VALID,0.536328,
2010-04-11, 01:06:04,VALID,1003.22,VALID,0,VALID,93.82,VALID,0,VALID,25.3584,VALID,53,VALID,0.206641,
2010-04-11, 01:07:04,VALID,1003.26,VALID,0,VALID,93.8963,VALID,0,VALID,25.3584,VALID,53,VALID,0.335547,
2010-04-11, 01:08:04,VALID,1003.25,VALID,0,VALID,93.9725,VALID,0,VALID,25.337,VALID,53,VALID,0.140625,
2010-04-11, 01:09:04,VALID,1003.24,VALID,0,VALID,94.0565,VALID,0,VALID,25.3604,VALID,53,VALID,0.324609,
2010-04-11, 01:10:04,VALID,1003.25,VALID,0,VALID,94.1175,VALID,0,VALID,25.339,VALID,53,VALID,0.417969,
2010-04-11, 01:11:04,VALID,1003.24,VALID,0,VALID,94.1328,VALID,0,VALID,25.3195,VALID,53,VALID,0.353906,
2010-04-11, 01:12:04,VALID,1003.22,VALID,0,VALID,94.1862,VALID,0,VALID,25.2981,VALID,53,VALID,0.480469,
2010-04-11, 01:13:04,VALID,1003.21,VALID,0,VALID,94.2472,VALID,0,VALID,25.3195,VALID,33,VALID,0.537891,
2010-04-11, 01:14:04,VALID,1003.18,VALID,0,VALID,94.2853,VALID,0,VALID,25.339,VALID,33,VALID,0.6375,
2010-04-11, 01:15:04,VALID,1003.19,VALID,0,VALID,94.3616,VALID,0,VALID,25.337,VALID,33,VALID,0.43125,
2010-04-11, 01:16:04,VALID,1003.21,VALID,0,VALID,94.3692,VALID,0,VALID,25.3584,VALID,33,VALID,0.335156,
2010-04-11, 01:17:04,VALID,1003.17,VALID,0,VALID,94.3387,VALID,0,VALID,25.3779,VALID,35,VALID,0.5625,
2010-04-11, 01:18:04,VALID,1003.2,VALID,0,VALID,94.3616,VALID,0,VALID,25.4169,VALID,45,VALID,0.151562,
2010-04-11, 01:19:04,VALID,1003.21,VALID,0,VALID,94.2701,VALID,0,VALID,25.4344,VALID,44,VALID,0.557813,
2010-04-11, 01:20:04,VALID,1003.18,VALID,0,VALID,94.1709,VALID,0,VALID,25.4558,VALID,44,VALID,0.294922,
2010-04-11, 01:21:04,VALID,1003.18,VALID,0.5,VALID,94.1022,VALID,0,VALID,25.5142,VALID,44,VALID,0.252734,
2010-04-11, 01:22:04,VALID,1003.17,VALID,0,VALID,93.9573,VALID,0,VALID,25.5532,VALID,44,VALID,0.189453,
2010-04-11, 01:23:04,VALID,1003.18,VALID,0,VALID,93.7742,VALID,0,VALID,25.5727,VALID,44,VALID,0.215625,
2010-04-11, 01:24:04,VALID,1003.14,VALID,0,VALID,93.5911,VALID,0,VALID,25.5727,VALID,44,VALID,0.44375,
2010-04-11, 01:25:04,VALID,1003.13,VALID,0,VALID,93.4767,VALID,0,VALID,25.5921,VALID,40,VALID,0.220703,
2010-04-11, 01:26:04,VALID,1003.1,VALID,0,VALID,93.3699,VALID,0,VALID,25.6311,VALID,9,VALID,0.796484,
2010-04-11, 01:27:04,VALID,1003.08,VALID,0,VALID,93.1868,VALID,0,VALID,25.6681,VALID,30,VALID,0.680078,
2010-04-11, 01:28:04,VALID,1003.08,VALID,0,VALID,92.8664,VALID,0,VALID,25.748,VALID,30,VALID,0.958984,
2010-04-11, 01:29:04,VALID,1003.06,VALID,0,VALID,92.401,VALID,0,VALID,25.8453,VALID,29,VALID,0.998438,
2010-04-11, 01:30:04,VALID,1003.08,VALID,0,VALID,91.8441,VALID,0,VALID,25.8629,VALID,29,VALID,0.574219,
2010-04-11, 01:31:04,VALID,1003.06,VALID,0,VALID,91.2796,VALID,0,VALID,25.9232,VALID,22,VALID,0.63125,
2010-04-11, 01:32:04,VALID,1003.03,VALID,0,VALID,90.715,VALID,0,VALID,25.9427,VALID,23,VALID,0.718359,
2010-04-11, 01:33:04,VALID,1003.06,VALID,0,VALID,90.3946,VALID,0,VALID,25.9622,VALID,22,VALID,0.696484,
2010-04-11, 01:34:04,VALID,1003.04,VALID,0,VALID,90.0818,VALID,0,VALID,25.9817,VALID,24,VALID,0.217969,
2010-04-11, 01:35:04,VALID,1003.04,VALID,0,VALID,89.9064,VALID,0,VALID,25.9817,VALID,24,VALID,0.416016,
2010-04-11, 01:36:04,VALID,1002.98,VALID,0,VALID,89.7919,VALID,0,VALID,26.0031,VALID,24,VALID,0.281641,
2010-04-11, 01:37:04,VALID,1002.95,VALID,0,VALID,89.7461,VALID,0,VALID,25.9817,VALID,25,VALID,0.462891,
2010-04-11, 01:38:04,VALID,1002.97,VALID,0,VALID,89.7309,VALID,0.100563,VALID,25.9602,VALID,25,VALID,0.315625,
2010-04-11, 01:39:04,VALID,1002.96,VALID,0,VALID,89.708,VALID,0,VALID,25.9797,VALID,25,VALID,0.289844,
2010-04-11, 01:40:04,VALID,1002.93,VALID,0,VALID,89.6546,VALID,0,VALID,25.9797,VALID,25,VALID,0.287109,
2010-04-11, 01:41:04,VALID,1002.9,VALID,0,VALID,89.6622,VALID,0,VALID,25.9797,VALID,25,VALID,0.416797,
2010-04-11, 01:42:04,VALID,1002.91,VALID,0,VALID,89.5173,VALID,0,VALID,26.0226,VALID,25,VALID,0.127734,
2010-04-11, 01:43:04,VALID,1002.91,VALID,0,VALID,89.5478,VALID,0,VALID,26.0012,VALID,25,VALID,0.335938,
2010-04-11, 01:44:04,VALID,1002.9,VALID,0,VALID,89.5249,VALID,0,VALID,25.9992,VALID,8,VALID,0.573438,
2010-04-11, 01:45:04,VALID,1002.9,VALID,0,VALID,89.3876,VALID,0,VALID,26.0206,VALID,9,VALID,0.0953125,
2010-04-11, 01:46:04,VALID,1002.91,VALID,0,VALID,89.4257,VALID,0,VALID,26.0206,VALID,9,VALID,0.144141,
2010-04-11, 01:47:04,VALID,1002.89,VALID,0,VALID,89.4257,VALID,0,VALID,25.9817,VALID,9,VALID,0,
2010-04-11, 01:48:04,VALID,1002.9,VALID,0,VALID,89.5402,VALID,0,VALID,25.9817,VALID,9,VALID,0.169922,
2010-04-11, 01:49:04,VALID,1002.88,VALID,0,VALID,89.5707,VALID,0,VALID,25.9427,VALID,9,VALID,0.208594,
2010-04-11, 01:50:04,VALID,1002.91,VALID,0,VALID,89.6241,VALID,0,VALID,25.9232,VALID,9,VALID,0,
2010-04-11, 01:51:04,VALID,1002.91,VALID,0,VALID,89.7538,VALID,0,VALID,25.8843,VALID,9,VALID,0,
2010-04-11, 01:52:04,VALID,1002.92,VALID,0,VALID,89.914,VALID,0,VALID,25.8434,VALID,9,VALID,0.230859,
2010-04-11, 01:53:04,VALID,1002.92,VALID,0,VALID,90.2115,VALID,0,VALID,25.785,VALID,9,VALID,0.184766,
2010-04-11, 01:54:04,VALID,1002.91,VALID,0,VALID,90.5624,VALID,0,VALID,25.748,VALID,9,VALID,0.304688,
2010-04-11, 01:55:04,VALID,1002.92,VALID,0,VALID,90.8829,VALID,0,VALID,25.6486,VALID,9,VALID,0.496484,
2010-04-11, 01:56:04,VALID,1002.92,VALID,0,VALID,91.6839,VALID,0,VALID,25.6116,VALID,9,VALID,0.46875,
2010-04-11, 01:57:04,VALID,1002.89,VALID,0,VALID,92.0882,VALID,0,VALID,25.5142,VALID,9,VALID,0.391016,
2010-04-11, 01:58:04,VALID,1002.87,VALID,0,VALID,92.401,VALID,0,VALID,25.4558,VALID,9,VALID,0.179297,
2010-04-11, 01:59:04,VALID,1002.88,VALID,0,VALID,92.6451,VALID,0,VALID,25.3955,VALID,9,VALID,0.216016,
2010-04-11, 02:00:04,VALID,1002.83,VALID,0,VALID,92.9121,VALID,0,VALID,25.3176,VALID,9,VALID,0.255859,
2010-04-11, 02:01:04,VALID,1002.82,VALID,0,VALID,93.1563,VALID,0,VALID,25.3195,VALID,9,VALID,0.306641,
2010-04-11, 02:02:04,VALID,1002.8,VALID,0,VALID,93.3622,VALID,0,VALID,25.2592,VALID,9,VALID,0.239063,
2010-04-11, 02:03:04,VALID,1002.74,VALID,0,VALID,93.5987,VALID,0,VALID,25.2611,VALID,9,VALID,0.285156,
2010-04-11, 02:04:04,VALID,1002.73,VALID,0,VALID,93.7895,VALID,0,VALID,25.2611,VALID,16,VALID,0.421875,
2010-04-11, 02:05:04,VALID,1002.72,VALID,0,VALID,93.8886,VALID,0,VALID,25.2202,VALID,15,VALID,0.5875,
2010-04-11, 02:06:04,VALID,1002.7,VALID,0,VALID,93.9878,VALID,0,VALID,25.2221,VALID,16,VALID,0.417188,
2010-04-11, 02:07:04,VALID,1002.67,VALID,0,VALID,94.0717,VALID,0,VALID,25.2027,VALID,16,VALID,0.226953,
2010-04-11, 02:08:04,VALID,1002.63,VALID,0,VALID,94.2167,VALID,0,VALID,25.2007,VALID,22,VALID,0.584375,
2010-04-11, 02:09:04,VALID,1002.62,VALID,0,VALID,94.3616,VALID,0,VALID,25.2806,VALID,22,VALID,0.258984,
2010-04-11, 02:10:04,VALID,1002.58,VALID,0,VALID,94.4074,VALID,0,VALID,25.3,VALID,22,VALID,0.0316406,
2010-04-11, 02:11:04,VALID,1002.58,VALID,0,VALID,94.3692,VALID,0,VALID,25.2981,VALID,22,VALID,0.0117188,
2010-04-11, 02:12:04,VALID,1002.59,VALID,0,VALID,94.3158,VALID,0,VALID,25.3195,VALID,22,VALID,0,
2010-04-11, 02:13:04,VALID,1002.61,VALID,0,VALID,94.3082,VALID,0,VALID,25.3584,VALID,22,VALID,0.174219,
2010-04-11, 02:14:05,VALID,1002.6,VALID,0,VALID,94.2243,VALID,0,VALID,25.339,VALID,22,VALID,0.160156,
2010-04-11, 02:15:05,VALID,1002.58,VALID,0,VALID,94.1785,VALID,0,VALID,25.3584,VALID,22,VALID,0.239453,
2010-04-11, 02:16:05,VALID,1002.6,VALID,0,VALID,94.1251,VALID,0,VALID,25.3584,VALID,22,VALID,0.239844,
2010-04-11, 02:17:05,VALID,1002.59,VALID,0,VALID,94.0412,VALID,0,VALID,25.339,VALID,22,VALID,0.522656,
2010-04-11, 02:18:05,VALID,1002.57,VALID,0,VALID,93.9649,VALID,0,VALID,25.2981,VALID,22,VALID,0.376172,
2010-04-11, 02:19:05,VALID,1002.59,VALID,0,VALID,93.9573,VALID,0,VALID,25.3195,VALID,22,VALID,0.455859,
2010-04-11, 02:20:05,VALID,1002.58,VALID,0,VALID,93.9954,VALID,0,VALID,25.2806,VALID,22,VALID,0.392188,
2010-04-11, 02:21:05,VALID,1002.57,VALID,0,VALID,94.0717,VALID,0,VALID,25.2806,VALID,26,VALID,0.251172,
2010-04-11, 02:22:05,VALID,1002.56,VALID,0,VALID,94.1022,VALID,0,VALID,25.2592,VALID,26,VALID,0.362891,
2010-04-11, 02:23:05,VALID,1002.54,VALID,0,VALID,94.1633,VALID,0,VALID,25.2397,VALID,26,VALID,0.237109,
2010-04-11, 02:24:05,VALID,1002.51,VALID,0,VALID,94.2319,VALID,0,VALID,25.2397,VALID,26,VALID,0.314063,
2010-04-11, 02:25:05,VALID,1002.51,VALID,0,VALID,94.2319,VALID,0,VALID,25.2806,VALID,26,VALID,0.203125,
2010-04-11, 02:26:05,VALID,1002.47,VALID,0,VALID,94.2396,VALID,0,VALID,25.2397,VALID,34,VALID,0.183594,
2010-04-11, 02:27:05,VALID,1002.49,VALID,0,VALID,94.2472,VALID,0,VALID,25.2806,VALID,34,VALID,0.111719,
2010-04-11, 02:28:05,VALID,1002.48,VALID,0,VALID,94.2396,VALID,0,VALID,25.2416,VALID,34,VALID,0.270703,
2010-04-11, 02:29:05,VALID,1002.47,VALID,0,VALID,94.2319,VALID,0,VALID,25.2221,VALID,34,VALID,0,
2010-04-11, 02:30:05,VALID,1002.48,VALID,0,VALID,94.2243,VALID,0,VALID,25.2027,VALID,34,VALID,0.252734,
2010-04-11, 02:31:05,VALID,1002.51,VALID,0,VALID,94.2472,VALID,0,VALID,25.1618,VALID,34,VALID,0,
2010-04-11, 02:32:05,VALID,1002.46,VALID,0,VALID,94.3235,VALID,0,VALID,25.1637,VALID,34,VALID,0.165234,
2010-04-11, 02:33:05,VALID,1002.48,VALID,0,VALID,94.3692,VALID,0,VALID,25.1442,VALID,34,VALID,0.153906,
2010-04-11, 02:34:05,VALID,1002.47,VALID,0,VALID,94.4532,VALID,0,VALID,25.1248,VALID,34,VALID,0.440625,
2010-04-11, 02:35:05,VALID,1002.48,VALID,0,VALID,94.5447,VALID,0,VALID,25.1267,VALID,34,VALID,0.246484,
2010-04-11, 02:36:05,VALID,1002.45,VALID,0,VALID,94.5981,VALID,0,VALID,25.1053,VALID,34,VALID,0.292578,
2010-04-11, 02:37:05,VALID,1002.44,VALID,0,VALID,94.6668,VALID,0,VALID,25.0644,VALID,34,VALID,0.364062,
2010-04-11, 02:38:05,VALID,1002.43,VALID,0,VALID,94.7202,VALID,0,VALID,25.0858,VALID,34,VALID,0.375,
2010-04-11, 02:39:05,VALID,1002.42,VALID,0,VALID,94.7888,VALID,0,VALID,25.0858,VALID,34,VALID,0.400781,
2010-04-11, 02:40:05,VALID,1002.41,VALID,0,VALID,94.8575,VALID,0,VALID,25.0255,VALID,34,VALID,0.449609,
2010-04-11, 02:41:05,VALID,1002.4,VALID,0,VALID,94.9033,VALID,0,VALID,25.006,VALID,34,VALID,0.451172,
2010-04-11, 02:42:05,VALID,1002.4,VALID,0,VALID,94.9414,VALID,0,VALID,25.006,VALID,34,VALID,0.345313,
2010-04-11, 02:43:05,VALID,1002.39,VALID,0,VALID,94.9643,VALID,0,VALID,25.0079,VALID,34,VALID,0.421484,
2010-04-11, 02:44:05,VALID,1002.38,VALID,0,VALID,94.9796,VALID,0,VALID,24.9671,VALID,34,VALID,0.299219,
2010-04-11, 02:45:05,VALID,1002.36,VALID,0,VALID,95.0101,VALID,0,VALID,24.969,VALID,34,VALID,0.219141,
2010-04-11, 02:46:05,VALID,1002.36,VALID,0,VALID,95.0177,VALID,0,VALID,24.969,VALID,34,VALID,0.237891,
2010-04-11, 02:47:05,VALID,1002.37,VALID,0,VALID,95.0635,VALID,0,VALID,24.9282,VALID,34,VALID,0.288281,
2010-04-11, 02:48:05,VALID,1002.4,VALID,0,VALID,95.0787,VALID,0,VALID,24.9495,VALID,34,VALID,0.225391,
2010-04-11, 02:49:05,VALID,1002.36,VALID,0,VALID,95.0864,VALID,0.100563,VALID,24.9282,VALID,34,VALID,0.226953,
2010-04-11, 02:50:05,VALID,1002.38,VALID,0,VALID,95.1321,VALID,0,VALID,24.93,VALID,34,VALID,0.383984,
2010-04-11, 02:51:05,VALID,1002.4,VALID,0,VALID,95.1627,VALID,0,VALID,24.8892,VALID,34,VALID,0.298828,
2010-04-11, 02:52:05,VALID,1002.44,VALID,0,VALID,95.1932,VALID,0.100563,VALID,24.8892,VALID,34,VALID,0.416406,
2010-04-11, 02:53:05,VALID,1002.44,VALID,0,VALID,95.2313,VALID,0.100563,VALID,24.8911,VALID,34,VALID,0.383594,
2010-04-11, 02:54:05,VALID,1002.47,VALID,0,VALID,95.2618,VALID,0,VALID,24.8716,VALID,34,VALID,0.217578,
2010-04-11, 02:55:05,VALID,1002.47,VALID,0,VALID,95.3076,VALID,0,VALID,24.8716,VALID,34,VALID,0.288672,
2010-04-11, 02:56:05,VALID,1002.47,VALID,0,VALID,95.3229,VALID,0.100563,VALID,24.8716,VALID,34,VALID,0.273828,
2010-04-11, 02:57:05,VALID,1002.44,VALID,0,VALID,95.3457,VALID,0,VALID,24.7919,VALID,34,VALID,0.285937,
2010-04-11, 02:58:05,VALID,1002.46,VALID,0,VALID,95.3534,VALID,0,VALID,24.8132,VALID,34,VALID,0.394531,
2010-04-11, 02:59:05,VALID,1002.42,VALID,0,VALID,95.3686,VALID,0,VALID,24.7937,VALID,34,VALID,0.308203,
2010-04-11, 03:00:05,VALID,1002.42,VALID,0,VALID,95.3991,VALID,0,VALID,24.7529,VALID,34,VALID,0.506641,
2010-04-11, 03:01:05,VALID,1002.41,VALID,0,VALID,95.4449,VALID,0,VALID,24.7743,VALID,34,VALID,0.376172,
2010-04-11, 03:02:05,VALID,1002.42,VALID,0,VALID,95.4831,VALID,0,VALID,24.7937,VALID,34,VALID,0.267969,
2010-04-11, 03:03:05,VALID,1002.39,VALID,0,VALID,95.5136,VALID,0,VALID,24.7335,VALID,34,VALID,0.248047,
2010-04-11, 03:04:05,VALID,1002.42,VALID,0,VALID,95.5517,VALID,0,VALID,24.7353,VALID,34,VALID,0.190625,
2010-04-11, 03:05:05,VALID,1002.43,VALID,0,VALID,95.5594,VALID,0,VALID,24.7353,VALID,34,VALID,0.246094,
2010-04-11, 03:06:05,VALID,1002.4,VALID,0,VALID,95.5975,VALID,0.100563,VALID,24.714,VALID,34,VALID,0.317187,
2010-04-11, 03:07:05,VALID,1002.41,VALID,0,VALID,95.6204,VALID,0.100563,VALID,24.7335,VALID,34,VALID,0.257422,
2010-04-11, 03:08:05,VALID,1002.42,VALID,0,VALID,95.6509,VALID,0,VALID,24.7335,VALID,34,VALID,0.305469,
2010-04-11, 03:09:05,VALID,1002.4,VALID,0,VALID,95.689,VALID,0,VALID,24.7353,VALID,34,VALID,0.290625,
2010-04-11, 03:10:05,VALID,1002.38,VALID,0,VALID,95.6967,VALID,0,VALID,24.7353,VALID,34,VALID,0.266406,
2010-04-11, 03:11:05,VALID,1002.4,VALID,0,VALID,95.6967,VALID,0,VALID,24.714,VALID,34,VALID,0.341016,
2010-04-11, 03:12:05,VALID,1002.39,VALID,0,VALID,95.7119,VALID,0,VALID,24.7353,VALID,34,VALID,0.194141,
2010-04-11, 03:13:05,VALID,1002.4,VALID,0,VALID,95.7272,VALID,0,VALID,24.714,VALID,34,VALID,0.170312,
2010-04-11, 03:14:05,VALID,1002.39,VALID,0,VALID,95.7424,VALID,0,VALID,24.714,VALID,34,VALID,0.124219,
2010-04-11, 03:15:05,VALID,1002.37,VALID,0,VALID,95.7653,VALID,0,VALID,24.714,VALID,34,VALID,0.321484,
2010-04-11, 03:16:05,VALID,1002.36,VALID,0,VALID,95.7882,VALID,0.100563,VALID,24.7548,VALID,34,VALID,0.298828,
2010-04-11, 03:17:05,VALID,1002.34,VALID,0,VALID,95.8187,VALID,0,VALID,24.7353,VALID,29,VALID,0.526953,
2010-04-11, 03:18:05,VALID,1002.33,VALID,0,VALID,95.8187,VALID,0,VALID,24.6945,VALID,29,VALID,0.392969,
2010-04-11, 03:19:05,VALID,1002.32,VALID,0,VALID,95.8264,VALID,0,VALID,24.6964,VALID,29,VALID,0.237109,
2010-04-11, 03:20:05,VALID,1002.3,VALID,0,VALID,95.8264,VALID,0,VALID,24.6769,VALID,29,VALID,0.394922,
2010-04-11, 03:21:05,VALID,1002.28,VALID,0,VALID,95.8111,VALID,0,VALID,24.6574,VALID,29,VALID,0.341406,
2010-04-11, 03:22:05,VALID,1002.28,VALID,0,VALID,95.8264,VALID,0,VALID,24.6574,VALID,29,VALID,0.335938,
2010-04-11, 03:23:05,VALID,1002.25,VALID,0,VALID,95.834,VALID,0,VALID,24.638,VALID,29,VALID,0.221875,
2010-04-11, 03:24:05,VALID,1002.25,VALID,0,VALID,95.8416,VALID,0,VALID,24.6574,VALID,29,VALID,0.3375,
2010-04-11, 03:25:05,VALID,1002.23,VALID,0,VALID,95.8645,VALID,0,VALID,24.638,VALID,29,VALID,0.374219,
2010-04-11, 03:26:05,VALID,1002.26,VALID,0,VALID,95.8569,VALID,0,VALID,24.6574,VALID,29,VALID,0.346094,
2010-04-11, 03:27:05,VALID,1002.26,VALID,0,VALID,95.8798,VALID,0,VALID,24.6574,VALID,29,VALID,0.199219,
2010-04-11, 03:28:05,VALID,1002.29,VALID,0,VALID,95.9255,VALID,0,VALID,24.6788,VALID,29,VALID,0.180859,
2010-04-11, 03:29:05,VALID,1002.29,VALID,0,VALID,95.9255,VALID,0,VALID,24.6166,VALID,29,VALID,0.160156,
2010-04-11, 03:30:05,VALID,1002.3,VALID,0,VALID,95.9484,VALID,0,VALID,24.638,VALID,29,VALID,0.305078,
2010-04-11, 03:31:05,VALID,1002.29,VALID,0,VALID,95.9408,VALID,0,VALID,24.6361,VALID,29,VALID,0,
2010-04-11, 03:32:05,VALID,1002.33,VALID,0,VALID,95.9561,VALID,0,VALID,24.6574,VALID,29,VALID,0,
2010-04-11, 03:33:05,VALID,1002.32,VALID,0,VALID,95.9637,VALID,0,VALID,24.6788,VALID,29,VALID,0,
2010-04-11, 03:34:05,VALID,1002.34,VALID,0,VALID,95.9789,VALID,0,VALID,24.6769,VALID,29,VALID,0,
2010-04-11, 03:35:05,VALID,1002.33,VALID,0,VALID,95.9942,VALID,0,VALID,24.6769,VALID,29,VALID,0,
2010-04-11, 03:36:05,VALID,1002.34,VALID,0,VALID,96.0095,VALID,0,VALID,24.7159,VALID,29,VALID,0,
2010-04-11, 03:37:05,VALID,1002.34,VALID,0,VALID,96.0171,VALID,0,VALID,24.7353,VALID,29,VALID,0,
2010-04-11, 03:38:05,VALID,1002.35,VALID,0,VALID,96.0171,VALID,0,VALID,24.6945,VALID,29,VALID,0,
2010-04-11, 03:39:05,VALID,1002.37,VALID,0,VALID,96.0323,VALID,0,VALID,24.7159,VALID,29,VALID,0,
2010-04-11, 03:40:05,VALID,1002.39,VALID,0,VALID,96.0476,VALID,0,VALID,24.7159,VALID,29,VALID,0,
2010-04-11, 03:41:05,VALID,1002.38,VALID,0,VALID,96.0552,VALID,0,VALID,24.7353,VALID,29,VALID,0,
2010-04-11, 03:42:05,VALID,1002.36,VALID,0,VALID,96.0857,VALID,0,VALID,24.7353,VALID,29,VALID,0,
2010-04-11, 03:43:05,VALID,1002.36,VALID,0,VALID,96.0781,VALID,0,VALID,24.7548,VALID,29,VALID,0,
2010-04-11, 03:44:05,VALID,1002.37,VALID,0,VALID,96.1086,VALID,0,VALID,24.7353,VALID,29,VALID,0,
2010-04-11, 03:45:05,VALID,1002.36,VALID,0,VALID,96.0781,VALID,0,VALID,24.7159,VALID,29,VALID,0,
2010-04-11, 03:46:05,VALID,1002.37,VALID,0,VALID,96.0934,VALID,0,VALID,24.6945,VALID,29,VALID,0,
2010-04-11, 03:47:05,VALID,1002.36,VALID,0,VALID,96.101,VALID,0,VALID,24.6964,VALID,29,VALID,0,
2010-04-11, 03:48:05,VALID,1002.34,VALID,0,VALID,96.101,VALID,0,VALID,24.6964,VALID,29,VALID,0,
2010-04-11, 03:49:05,VALID,1002.35,VALID,0,VALID,96.1086,VALID,0,VALID,24.6769,VALID,29,VALID,0,
2010-04-11, 03:50:05,VALID,1002.34,VALID,0,VALID,96.1086,VALID,0,VALID,24.6769,VALID,29,VALID,0,